| time (UTC) | temp F | wind direction | speed MPH | gust MPH | rain 1hr in | rain 24hr in | rain mn in | humidity % | barometer mb |
| 20260902073345 | 65 | 58 | 6.0 | 11.0 | 0.00 | 0.00 | 0.00 | 94 | 1024.9 |
| 20260902072446 | 65 | 56 | 6.0 | 12.0 | 0.00 | 0.00 | 0.00 | 94 | 1024.8 |
| 20260902071545 | 66 | 56 | 3.0 | 8.0 | 0.00 | 0.00 | 0.00 | 94 | 1024.6 |
| 20260902065745 | 67 | 62 | 4.0 | 7.0 | 0.00 | 0.00 | 0.00 | 93 | 1024.6 |
| 20260902064845 | 67 | 57 | 3.0 | 8.0 | 0.00 | 0.00 | 0.00 | 93 | 1024.6 |
| 20260902063946 | 67 | 42 | 2.0 | 7.0 | 0.00 | 0.00 | 0.00 | 92 | 1024.7 |
| 20260902063045 | 67 | 47 | 3.0 | 6.0 | 0.00 | 0.00 | 0.00 | 92 | 1024.7 |
| 20260902062145 | 66 | 56 | 3.0 | 8.0 | 0.00 | 0.00 | 0.00 | 92 | 1024.7 |
| 20260902060345 | 66 | 63 | 3.0 | 6.0 | 0.00 | 0.00 | 0.00 | 92 | 1024.6 |
| 20260902055446 | 66 | 74 | 3.0 | 6.0 | 0.00 | 0.00 | 0.00 | 92 | 1024.6 |
| 20260902054546 | 66 | 71 | 3.0 | 8.0 | 0.00 | 0.00 | 0.00 | 92 | 1024.9 |
| 20260902052745 | 66 | 63 | 5.0 | 10.0 | 0.00 | 0.00 | 0.00 | 92 | 1024.5 |
| 20260902051845 | 66 | 59 | 4.0 | 11.0 | 0.00 | 0.00 | 0.00 | 92 | 1024.7 |
| 20260902050045 | 66 | 63 | 4.0 | 8.0 | 0.00 | 0.00 | 0.00 | 92 | 1024.7 |
| 20260902045145 | 66 | 80 | 3.0 | 6.0 | 0.00 | 0.00 | 0.00 | 92 | 1024.6 |
| 20260902044246 | 65 | 67 | 5.0 | 7.0 | 0.00 | 0.00 | 0.00 | 92 | 1024.8 |
| 20260902043345 | 65 | 60 | 4.0 | 8.0 | 0.00 | 0.00 | 0.00 | 92 | 1024.8 |
| 20260902042445 | 65 | 63 | 5.0 | 8.0 | 0.00 | 0.00 | 0.00 | 92 | 1024.5 |
| 20260902041545 | 65 | 72 | 5.0 | 12.0 | 0.00 | 0.00 | 0.00 | 93 | 1024.0 |
| 20260902040645 | 65 | 80 | 5.0 | 10.0 | 0.00 | 0.00 | 0.00 | 93 | 1024.0 |
| 20260902035745 | 65 | 73 | 5.0 | 11.0 | 0.00 | 0.00 | 0.00 | 93 | 1024.1 |
| 20260902033945 | 65 | 72 | 6.0 | 11.0 | 0.00 | 0.00 | 0.00 | 93 | 1024.0 |
| 20260902033045 | 65 | 79 | 5.0 | 8.0 | 0.00 | 0.00 | 0.00 | 92 | 1024.1 |
| 20260902032145 | 65 | 76 | 5.0 | 8.0 | 0.00 | 0.00 | 0.00 | 92 | 1024.3 |
| 20260902031246 | 65 | 59 | 4.0 | 10.0 | 0.00 | 0.00 | 0.00 | 92 | 1024.2 |
| 20260902030345 | 65 | 67 | 5.0 | 11.0 | 0.00 | 0.00 | 0.00 | 92 | 1024.0 |
| 20260902025445 | 65 | 71 | 4.0 | 8.0 | 0.00 | 0.00 | 0.00 | 92 | 1023.9 |
| 20260902024545 | 65 | 73 | 5.0 | 12.0 | 0.00 | 0.00 | 0.00 | 92 | 1023.7 |
| 20260902022746 | 65 | 71 | 6.0 | 11.0 | 0.00 | 0.00 | 0.00 | 91 | 1023.5 |
| 20260902021845 | 65 | 62 | 5.0 | 9.0 | 0.00 | 0.00 | 0.00 | 91 | 1023.5 |
| 20260902020945 | 66 | 63 | 5.0 | 11.0 | 0.00 | 0.00 | 0.00 | 91 | 1023.4 |
| 20260902020045 | 66 | 67 | 5.0 | 10.0 | 0.00 | 0.00 | 0.00 | 91 | 1023.1 |
| 20260902015145 | 66 | 70 | 5.0 | 13.0 | 0.00 | 0.00 | 0.00 | 91 | 1023.1 |
| 20260902014245 | 66 | 67 | 7.0 | 12.0 | 0.00 | 0.00 | 0.00 | 92 | 1023.0 |
| 20260902013345 | 66 | 64 | 5.0 | 13.0 | 0.00 | 0.00 | 0.00 | 92 | 1022.8 |
| 20260902012445 | 66 | 63 | 6.0 | 13.0 | 0.00 | 0.00 | 0.00 | 92 | 1022.5 |
| 20260902011545 | 67 | 71 | 5.0 | 12.0 | 0.00 | 0.00 | 0.00 | 92 | 1022.4 |
| 20260902010646 | 67 | 68 | 5.0 | 11.0 | 0.00 | 0.00 | 0.00 | 92 | 1022.2 |
| 20260902003945 | 67 | 67 | 7.0 | 13.0 | 0.00 | 0.00 | 0.00 | 91 | 1022.0 |
| 20260902003045 | 68 | 70 | 9.0 | 18.0 | 0.00 | 0.00 | 0.00 | 91 | 1022.0 |
| 20260902001245 | 69 | 67 | 7.0 | 14.0 | 0.00 | 0.00 | 0.00 | 92 | 1022.0 |
| 20260902000346 | 69 | 73 | 6.0 | 11.0 | 0.00 | 0.00 | 0.00 | 93 | 1021.9 |
| 20260901235445 | 69 | 62 | 8.0 | 14.0 | 0.00 | 0.00 | 0.00 | 93 | 1021.6 |
| 20260901234545 | 70 | 63 | 7.0 | 13.0 | 0.00 | 0.00 | 0.00 | 93 | 1021.6 |
| 20260901233645 | 70 | 71 | 6.0 | 14.0 | 0.00 | 0.00 | 0.00 | 93 | 1021.5 |
| 20260901232745 | 70 | 63 | 7.0 | 14.0 | 0.00 | 0.00 | 0.00 | 93 | 1021.4 |
| 20260901231845 | 71 | 68 | 7.0 | 13.0 | 0.00 | 0.00 | 0.00 | 93 | 1021.3 |
| 20260901230945 | 71 | 60 | 6.0 | 12.0 | 0.00 | 0.00 | 0.00 | 93 | 1021.4 |
| 20260901224245 | 72 | 65 | 5.0 | 9.0 | 0.00 | 0.00 | 0.00 | 94 | 1020.9 |
| 20260901223345 | 72 | 66 | 4.0 | 8.0 | 0.00 | 0.00 | 0.00 | 94 | 1021.0 |
| 20260901222445 | 72 | 72 | 4.0 | 9.0 | 0.00 | 0.00 | 0.00 | 93 | 1021.0 |
| 20260901221545 | 72 | 68 | 4.0 | 10.0 | 0.00 | 0.00 | 0.00 | 93 | 1020.9 |
| 20260901215745 | 72 | 66 | 7.0 | 12.0 | 0.00 | 0.00 | 0.00 | 93 | 1020.9 |
| 20260901214845 | 72 | 65 | 6.0 | 11.0 | 0.00 | 0.00 | 0.00 | 93 | 1020.9 |
| 20260901213945 | 73 | 64 | 7.0 | 11.0 | 0.00 | 0.00 | 0.00 | 93 | 1020.9 |
| 20260901213045 | 73 | 68 | 4.0 | 8.0 | 0.00 | 0.00 | 0.00 | 93 | 1020.9 |
| 20260901212146 | 73 | 55 | 5.0 | 9.0 | 0.00 | 0.00 | 0.00 | 93 | 1021.0 |
| 20260901211246 | 73 | 53 | 5.0 | 9.0 | 0.00 | 0.00 | 0.00 | 92 | 1021.1 |
| 20260901210345 | 74 | 55 | 6.0 | 11.0 | 0.00 | 0.00 | 0.00 | 92 | 1021.0 |
| 20260901205445 | 75 | 47 | 4.0 | 10.0 | 0.00 | 0.00 | 0.00 | 92 | 1020.8 |
| 20260901204545 | 75 | 42 | 3.0 | 7.0 | 0.00 | 0.00 | 0.00 | 91 | 1020.8 |
| 20260901203645 | 76 | 19 | 4.0 | 10.0 | 0.00 | 0.00 | 0.00 | 91 | 1020.7 |
| 20260901202745 | 76 | 29 | 4.0 | 10.0 | 0.00 | 0.00 | 0.00 | 89 | 1020.6 |
| 20260901200945 | 78 | 143 | 1.0 | 2.0 | 0.00 | 0.00 | 0.00 | 87 | 1020.5 |
| 20260901200045 | 77 | 155 | 0.0 | 2.0 | 0.00 | 0.00 | 0.00 | 88 | 1020.5 |
| 20260901195145 | 77 | 124 | 1.0 | 4.0 | 0.00 | 0.00 | 0.00 | 88 | 1020.6 |
| 20260901193345 | 77 | 162 | 2.0 | 4.0 | 0.00 | 0.00 | 0.00 | 89 | 1020.5 |
| 20260901192445 | 77 | 196 | 2.0 | 4.0 | 0.00 | 0.00 | 0.00 | 89 | 1020.7 |
| 20260901191545 | 77 | 193 | 1.0 | 4.0 | 0.00 | 0.00 | 0.00 | 89 | 1020.6 |
| 20260901190646 | 77 | 170 | 3.0 | 7.0 | 0.00 | 0.00 | 0.00 | 90 | 1020.5 |
| 20260901185745 | 76 | 189 | 3.0 | 6.0 | 0.00 | 0.00 | 0.00 | 91 | 1020.5 |
| 20260901184845 | 76 | 182 | 3.0 | 6.0 | 0.00 | 0.00 | 0.00 | 92 | 1020.5 |
| 20260901183945 | 75 | 135 | 2.0 | 6.0 | 0.00 | 0.00 | 0.00 | 94 | 1020.6 |
| 20260901183045 | 75 | 157 | 3.0 | 7.0 | 0.00 | 0.00 | 0.00 | 94 | 1020.7 |
| 20260901182145 | 74 | 144 | 4.0 | 8.0 | 0.00 | 0.00 | 0.00 | 94 | 1020.6 |
| 20260901181245 | 74 | 141 | 2.0 | 6.0 | 0.00 | 0.00 | 0.00 | 94 | 1020.7 |
| 20260901180346 | 73 | 174 | 1.0 | 4.0 | 0.00 | 0.00 | 0.00 | 95 | 1020.7 |
| 20260901175445 | 73 | 173 | 2.0 | 5.0 | 0.00 | 0.00 | 0.00 | 95 | 1020.6 |
| 20260901174545 | 73 | 163 | 3.0 | 7.0 | 0.00 | 0.00 | 0.00 | 95 | 1020.8 |
| 20260901173645 | 73 | 153 | 3.0 | 7.0 | 0.00 | 0.00 | 0.00 | 95 | 1020.8 |
| 20260901172745 | 72 | 137 | 3.0 | 9.0 | 0.00 | 0.00 | 0.00 | 95 | 1021.0 |
| 20260901171845 | 72 | 147 | 5.0 | 9.0 | 0.00 | 0.00 | 0.00 | 95 | 1020.6 |
| 20260901170944 | 72 | 125 | 3.0 | 6.0 | 0.00 | 0.00 | 0.00 | 95 | 1020.9 |
| 20260901170045 | 72 | 136 | 4.0 | 7.0 | 0.00 | 0.00 | 0.00 | 95 | 1020.9 |
| 20260901164245 | 71 | 149 | 2.0 | 7.0 | 0.00 | 0.00 | 0.00 | 95 | 1021.5 |
| 20260901163344 | 71 | 178 | 1.0 | 3.0 | 0.00 | 0.00 | 0.00 | 95 | 1021.9 |
| 20260901162445 | 71 | 152 | 1.0 | 3.0 | 0.00 | 0.00 | 0.00 | 95 | 1021.7 |
| 20260901161545 | 71 | 156 | 3.0 | 5.0 | 0.00 | 0.00 | 0.00 | 95 | 1021.8 |
| 20260901160645 | 71 | 176 | 1.0 | 4.0 | 0.00 | 0.00 | 0.00 | 95 | 1022.2 |
| 20260901155745 | 71 | 162 | 1.0 | 4.0 | 0.00 | 0.00 | 0.00 | 95 | 1022.3 |
| 20260901154845 | 71 | 176 | 2.0 | 6.0 | 0.00 | 0.00 | 0.00 | 95 | 1022.2 |
| 20260901153945 | 71 | 149 | 2.0 | 7.0 | 0.00 | 0.00 | 0.00 | 95 | 1021.9 |
| 20260901153045 | 70 | 155 | 4.0 | 8.0 | 0.00 | 0.00 | 0.00 | 95 | 1021.9 |
| 20260901152145 | 70 | 138 | 3.0 | 6.0 | 0.00 | 0.00 | 0.00 | 95 | 1021.9 |
| 20260901151244 | 70 | 145 | 3.0 | 6.0 | 0.00 | 0.00 | 0.00 | 95 | 1022.1 |
| 20260901150345 | 70 | 149 | 2.0 | 5.0 | 0.00 | 0.00 | 0.00 | 95 | 1022.2 |
| 20260901144545 | 70 | 118 | 3.0 | 6.0 | 0.00 | 0.00 | 0.00 | 95 | 1022.5 |
| 20260901143645 | 70 | 118 | 2.0 | 4.0 | 0.00 | 0.00 | 0.00 | 95 | 1022.5 |
| 20260901142745 | 70 | 106 | 3.0 | 4.0 | 0.00 | 0.00 | 0.00 | 95 | 1022.5 |
| 20260901141845 | 70 | 107 | 1.0 | 4.0 | 0.00 | 0.00 | 0.00 | 95 | 1022.7 |
| 20260901140945 | 70 | 108 | 3.0 | 4.0 | 0.00 | 0.00 | 0.00 | 95 | 1022.5 |
| 20260901140045 | 70 | 105 | 2.0 | 3.0 | 0.00 | 0.00 | 0.00 | 95 | 1022.5 |
| 20260901135145 | 70 | 136 | 2.0 | 4.0 | 0.00 | 0.00 | 0.00 | 94 | 1022.4 |
| 20260901134245 | 70 | 182 | 2.0 | 5.0 | 0.00 | 0.00 | 0.00 | 94 | 1022.4 |
| 20260901132445 | 70 | 165 | 2.0 | 4.0 | 0.00 | 0.00 | 0.00 | 95 | 1022.2 |
| 20260901130644 | 70 | 167 | 2.0 | 5.0 | 0.00 | 0.00 | 0.00 | 95 | 1022.3 |
| 20260901125744 | 70 | 152 | 2.0 | 4.0 | 0.00 | 0.00 | 0.00 | 95 | 1022.3 |
| 20260901124845 | 70 | 137 | 2.0 | 5.0 | 0.00 | 0.00 | 0.00 | 95 | 1022.4 |
| 20260901123945 | 70 | 131 | 2.0 | 3.0 | 0.00 | 0.00 | 0.00 | 95 | 1022.3 |
| 20260901123044 | 69 | 138 | 0.0 | 2.0 | 0.00 | 0.00 | 0.00 | 95 | 1022.6 |
| 20260901122144 | 69 | 0 | 0.0 | 0.0 | 0.00 | 0.00 | 0.00 | 95 | 1022.6 |
| 20260901120345 | 69 | 169 | 1.0 | 4.0 | 0.00 | 0.00 | 0.00 | 95 | 1022.5 |
| 20260901115444 | 69 | 141 | 3.0 | 5.0 | 0.00 | 0.00 | 0.00 | 95 | 1022.3 |
| 20260901114545 | 69 | 164 | 1.0 | 4.0 | 0.00 | 0.00 | 0.00 | 95 | 1022.4 |
| 20260901113644 | 69 | 182 | 1.0 | 2.0 | 0.00 | 0.00 | 0.00 | 95 | 1022.6 |
| 20260901112745 | 69 | 142 | 1.0 | 4.0 | 0.00 | 0.00 | 0.00 | 95 | 1022.5 |
| 20260901111845 | 69 | 176 | 0.0 | 3.0 | 0.00 | 0.00 | 0.00 | 95 | 1022.5 |
| 20260901110945 | 69 | 155 | 1.0 | 3.0 | 0.00 | 0.00 | 0.00 | 95 | 1022.4 |
| 20260901110045 | 68 | 152 | 2.0 | 5.0 | 0.00 | 0.00 | 0.00 | 95 | 1022.4 |
| 20260901104245 | 68 | 139 | 1.0 | 4.0 | 0.00 | 0.00 | 0.00 | 95 | 1022.3 |
| 20260901103345 | 68 | 133 | 2.0 | 4.0 | 0.00 | 0.00 | 0.00 | 95 | 1022.2 |
| 20260901102444 | 68 | 133 | 2.0 | 3.0 | 0.00 | 0.00 | 0.00 | 95 | 1022.3 |
| 20260901100645 | 68 | 141 | 1.0 | 3.0 | 0.00 | 0.00 | 0.00 | 95 | 1022.4 |
| 20260901095745 | 68 | 125 | 2.0 | 4.0 | 0.00 | 0.00 | 0.00 | 95 | 1022.1 |
| 20260901094844 | 68 | 117 | 2.0 | 5.0 | 0.00 | 0.00 | 0.00 | 95 | 1022.1 |
| 20260901093945 | 68 | 115 | 2.0 | 5.0 | 0.00 | 0.00 | 0.00 | 95 | 1022.3 |
| 20260901092144 | 68 | 109 | 3.0 | 5.0 | 0.00 | 0.00 | 0.00 | 95 | 1022.4 |
| 20260901091245 | 68 | 101 | 2.0 | 4.0 | 0.00 | 0.00 | 0.00 | 95 | 1022.4 |
| 20260901090344 | 68 | 122 | 2.0 | 3.0 | 0.00 | 0.00 | 0.00 | 95 | 1022.4 |
| 20260901082744 | 68 | 132 | 0.0 | 2.0 | 0.00 | 0.00 | 0.00 | 95 | 1022.9 |
| 20260901081845 | 68 | 128 | 0.0 | 2.0 | 0.00 | 0.00 | 0.00 | 95 | 1022.9 |
| 20260901080945 | 68 | 206 | 2.0 | 4.0 | 0.00 | 0.00 | 0.00 | 95 | 1022.9 |
| 20260901080045 | 68 | 154 | 2.0 | 4.0 | 0.00 | 0.00 | 0.00 | 94 | 1022.8 |
| 20260901074245 | 68 | 206 | 1.0 | 3.0 | 0.00 | 0.00 | 0.00 | 94 | 1023.1 |